sat.trackr.live / text

‹ back to catalog

SITRO-AIS 12 (SMIRENNIY)

NORAD 57204 · 2023-091AQ

PAYLOAD ACTIVE UNKNOWN

§ Identity

Operator
Country
CIS
Launch date
2023-06-27
Launch site
VOSTO
Launch vehicle
Mass (kg)
RCS (m²)

Purposes: tech_demo

External: N2YO · Heavens-Above · Gunter

§ Orbital elements

Epoch: 2026-09-19T22:26:22.601184Z

Period
93.41 min
Inclination
97.5002°
Eccentricity
0.0007025
Mean motion
15.41661679 rev/d
Perigee alt
436.4 km
Apogee alt
446.0 km
Semi-major
6,819.3 km
B*
3.7799e-4
RAAN
336.1051°
Arg perigee
89.5441°
Mean anomaly
270.6610°
Rev number
17,935

§ Raw data

SITRO-AIS 12 (SMIRENNIY)1 57204U 23091AQ  26262.93498381  .00015869  00000+0  37799-3 0  99922 57204  97.5002 336.1051 0007025  89.5441 270.6610 15.41661679179350

JSON: /api/v1/satellites/57204 · /tle

For live sub-satellite position, see the globe view (requires WebGL).

§ Visibility from observer

Set your observer location to see the next 7 days of passes ≥ 10°. The values pass through the URL so the page stays shareable.

No JS? Fill the form by hand. The geolocation button needs JavaScript.

§ Radio — SatNOGS DB

ModeDescriptionDownlinkUplink
GMSK USP Mode U - GMSK USP 2K4 TLM 401.350 MHz

1 transmitter · refreshed weekly from db.satnogs.org